Tracking 20041 objects as of 22-Nov-2019
Live streaming from Space Station
objects crossing your sky now

SL-12 R/B(AUX MOTOR)

Track SL-12 R/B(AUX MOTOR) now!
10-day predictions


NORAD ID: 18374
Int'l Code: 1987-079G
Perigee: 602.3 km
Apogee: 18,416.8 km
Inclination: 65.3 °
Period: 331.9 minutes
Semi major axis: 15880 km
RCS: 0.6049 m2 (medium)
Launch date: September 16, 1987
Source: Commonwealth of Independent States (former USSR) (CIS)
Launch site: TYURATAM MISSILE AND SPACE COMPLEX (TTMTR)

Note: This is a ROCKET BODY
aabbcc
Your satellite tracking list
Your tracking list is empty




NASA's NSSDC Master Catalog

Two Line Element Set (TLE):
1 18374U 87079G   19325.42777835 -.00000017 +00000-0 -21714-3 0  9995
2 18374 065.2578 085.9670 5608899 114.3767 312.7230 04.33815693501328
Source of the keplerian elements: AFSPC